Dewpoint
63 62 61 60 60 60 60 59 59 59 58 57 57 56 55 55 56 53 52 50 49 49 49 48 48 48 49 48 48 49 49 49 48 47 46 46 45 45 45 44 44 44
63 62 61 61 61 60 60 60 59 59 58 58 57 56 56 55 56 53 50 50 49 48 48 47 48 48 47 46 46 46 46 46 46 49 46 45 44 43 43 43 42 42
63 62 61 61 60 60 60 60 59 59 58 58 56 57 56 55 53 51 50 49 47 47 47 48 47 47 46 46 47 47 47 46 46 46 46 44 45 45 45 45 44 43
62 62 61 61 61 60 60 59 59 59 59 57 57 57 55 55 52 51 51 51 48 48 48 46 46 46 46 47 47 46 45 45 46 47 46 46 46 44 43 44 44 42
62 62 61 61 61 60 59 59 58 59 58 56 56 55 54 53 50 50 49 48 48 48 46 47 47 46 47 47 45 44 45 45 45 43 42 42 42 43 43 43 42 42
63 62 62 61 60 60 59 59 59 58 57 56 55 53 53 51 51 49 48 48 47 47 46 46 46 47 46 45 44 45 45 44 43 44 44 43 43 43 45 45 42 42
63 62 61 61 60 60 59 59 58 57 56 56 55 53 52 51 50 49 48 48 47 47 45 45 46 46 45 45 45 45 44 43 43 43 42 42 44 43 42 41 42 42
62 62 61 60 60 59 59 58 56 56 56 55 54 52 51 50 50 49 48 47 46 45 45 46 46 45 45 45 45 44 43 45 43 42 41 42 42 41 43 43 40 40
62 62 61 60 59 59 58 57 56 55 55 54 53 51 51 51 50 49 48 47 46 45 45 45 45 45 46 45 43 43 44 43 43 41 42 42 41 41 40 41 41 43
62 61 60 60 59 58 57 56 55 55 55 54 53 51 51 51 49 48 48 47 46 44 44 44 44 45 46 43 43 43 44 43 43 43 42 41 41 40 41 43 43 41
62 61 60 59 58 57 56 55 55 54 54 53 52 51 51 50 49 48 47 46 45 44 44 44 44 45 44 43 44 44 44 43 42 41 42 41 40 41 47 41 43 42
61 60 59 59 58 56 55 55 54 53 53 52 51 50 50 49 48 47 46 45 44 44 44 43 44 44 43 43 43 44 43 42 43 44 43 41 41 43 42 44 42 43
60 60 59 58 56 56 55 54 53 53 52 51 51 50 49 48 48 47 47 45 44 44 44 43 44 44 43 43 44 43 43 43 44 43 41 41 41 42 43 43 42 41
60 59 58 56 56 55 55 54 53 52 51 50 50 50 49 48 47 46 46 44 44 44 44 44 43 43 42 43 43 43 44 44 43 41 40 41 42 41 43 43 42 39
59 58 57 56 55 55 54 53 52 51 50 50 50 49 49 47 47 46 45 44 44 44 44 44 44 44 45 45 46 46 46 44 43 41 41 42 41 42 42 42 38 36
58 57 56 55 55 54 53 53 52 51 49 49 49 49 48 47 47 46 44 44 43 44 44 46 46 46 48 47 47 45 45 44 43 42 42 42 41 41 41 40 35 35
57 56 56 55 54 54 53 52 52 50 49 49 49 48 47 47 46 45 44 44 44 45 46 46 46 46 44 42 42 44 44 43 43 42 43 42 41 40 41 41 36 36
57 56 55 54 54 53 53 52 51 49 48 48 48 47 47 47 45 45 46 46 46 46 46 46 46 45 40 40 40 41 44 44 44 43 43 42 42 40 42 41 35 35
56 55 55 54 54 53 53 52 50 48 48 48 47 47 47 46 47 47 46 46 46 46 47 47 45 40 39 39 39 41 42 44 43 43 43 41 43 41 41 41 36 36
55 55 54 54 53 53 53 51 49 47 47 48 48 47 46 47 47 46 46 46 46 46 46 45 43 40 38 39 39 39 40 42 43 42 44 42 43 42 41 41 39 36
55 54 54 54 53 53 52 51 49 47 47 47 47 46 46 46 46 46 45 46 46 45 44 45 44 39 38 38 38 38 39 41 43 44 43 43 42 43 43 42 42 41
55 54 53 53 53 53 52 51 49 47 47 46 46 46 46 46 45 45 45 45 46 46 45 46 45 38 37 37 37 37 39 43 42 42 42 42 42 43 42 43 42 42
55 54 53 53 53 53 52 51 47 47 46 46 45 45 45 44 44 44 44 45 46 45 45 46 43 38 37 37 37 37 39 41 41 41 42 42 42 42 42 42 43 42
55 54 53 53 53 52 52 50 47 47 46 46 45 45 45 44 44 44 44 45 45 44 45 45 43 40 37 37 37 37 40 40 41 40 41 42 42 42 41 41 44 48
54 54 53 53 53 52 51 48 47 47 47 46 46 45 44 44 44 44 43 44 44 44 49 46 43 40 37 36 36 37 40 40 40 39 41 41 41 40 40 40 42 47
54 53 53 52 52 51 49 48 47 47 47 46 45 44 43 43 42 43 43 42 44 44 47 45 43 41 40 37 37 37 39 40 40 43 41 39 38 39 40 39 41 40